Weather in Jaffna

Sri Lanka     9°39′36″N   80°01′14″E
temp.,
°C
wind,
m/s
gust,
m/s
humid.,
%
clouds,
%
prec.,
mm/h
press.,
hPa
HPBL,
m
22 january, sat
sat2223:30+23ese3479100 0.0 1012151
02:30+23sse227991 0.0 1010142
05:30+23s227875 0.0 1010163
08:30+25ssw237043 0.0 1012389
11:30+27sw216241 0.0 1011646
14:30+28wsw226362 0.0 1008708
17:30+27se126813 0.0 1008138
20:30+24ese577835 0.0 1010165
23 january, sun
sun2323:30+24ese58760 0.0 1010239
02:30+23s46765 0.0 1009287
05:30+23s34725 0.0 1010320
08:30+25sse22635 0.0 1012330
11:30+27s22555 0.0 1012581
14:30+28wsw22495 0.0 1008652
17:30+26nne11613 0.0 1008129
20:30+24ese467479 0.0 1010186
24 january, mon
mon2423:30+24ese587971 0.0 1010269
02:30+23se578099 0.0 1008313
05:30+23sse577899 0.0 1008321
08:30+24se237065 0.0 1011388
11:30+27se235660 0.0 1011726
14:30+28nne125614 0.0 1008864
17:30+26e2365100 0.0 1007227
20:30+24e4677100 0.0 1010250
25 january, tue
tue2523:30+24ese467990 0.0 1010248
02:30+23ese4781100 0.0 1008280
05:30+23se578199 0.0 1008314
08:30+25ese247220 0.0 1011336
11:30+28e13566 0.0 1010772
14:30+28ene345687 0.0 1007918
17:30+26ene456855 0.0 1007684
20:30+24e477886 0.0 1010351
26 january, wed
wed2623:30+24e4778100 0.0 1010339
02:30+23e4680100 0.0 1008339
05:30+23e478094 0.0 1009372
08:30+26ene46705 0.0 1011836
11:30+28ene456028 0.0 10101123
14:30+28ene455899 0.0 1007957
17:30+26e5669100 0.0 1008651
20:30+24e467898 0.0 1011317